Weather in Gimhae

South Korea     35°13′46″N   128°53′38″E
temp.,
°C
wind,
m/s
gust,
m/s
humid.,
%
clouds,
%
prec.,
mm/h
press.,
hPa
HPBL,
m
15 may, sat
sat1500:00+17ene1290100 0.0 101261
03:00+17ene1191100 0.0 101135
06:00+17ene1192100 0.5 101152
09:00+17ene1296100 1.3 101099
12:00+18e1299100 3.6 100891
15:00+19sse1299100 11.1 1006161
18:00+20wsw129799 0.4 1006241
21:00+19ssw13100100 0.4 1007175
16 may, sun
sun1600:00+18ssw13100100 0.0 1007172
03:00+19ssw13100100 0.1 1006166
06:00+19s311100100 1.4 1005585
09:00+20s41399100 10.0 1003890
12:00+20sw41399100 15.4 10031063
15:00+19ssw2899100 3.4 1003401
18:00+18ese2499100 4.7 1004342
21:00+15e2398100 8.6 1006246
17 may, mon
mon1700:00+14ene2498100 5.1 1006269
03:00+13ne2397100 6.6 1005200
06:00+13ne2397100 0.1 1006202
09:00+13ne2496100 0.3 1008227
12:00+13nne2597100 3.1 1008253
15:00+14ne2392100 3.3 1008369
18:00+13ne1393100 0.0 1009220
21:00+13ne1295100 0.1 1011165
18 may, tue
tue1800:00+13ne1295100 0.3 1011102
03:00+13nne1194100 0.3 101051
06:00+13e0094100 0.1 101135
09:00+14nw0191100 0.1 1012151
12:00+17wnw128182 0.0 1012571
15:00+20ssw2270100 0.1 1011856
18:00+17s2385100 0.0 1012268
21:00+14ssw129896 0.0 101333
19 may, wed
wed1900:00+14wnw119796 0.0 101417
03:00+13wnw219747 0.0 101324
06:00+14nw2294100 0.0 101439
09:00+20w1169100 0.0 1014324
12:00+25ssw22490 0.0 10141013
15:00+24ssw44540 0.0 1013759
18:00+21ssw2367100 0.0 1014250
21:00+17s2283100 0.0 101564